Change the Weather History Date:

Tuesday, July 29, 2014

  Actual Average Record
Temperature  
Mean Temperature 62 °F -  
Max Temperature 75 °F 84 °F 100 °F (1999)
Min Temperature 49 °F 65 °F 49 °F (2014)
Degree Days  
Heating Degree Days 3    
Growing Degree Days 12 (Base 50)    
Moisture  
Dew Point 54 °F    
Average Humidity 74    
Maximum Humidity 98    
Minimum Humidity 53    
Precipitation  
Precipitation 0.00 in - - ()
Sea Level Pressure  
Sea Level Pressure 30.07 in    
Wind  
Wind Speed 5 mph (WNW)    
Max Wind Speed 10 mph    
Max Gust Speed -    
Visibility 10 miles    
Events      
Averages and records for this station are not official NWS values.
T = Trace of Precipitation, MM = Missing Value Source: NWS Daily Summary

Daily Weather History Graph

Daily Weather History Graph

Search for Another Location

Airport or City:

Trip Planner

Search our weather history database for the weather conditions in past years. The results will help you decide how hot, cold, wet, or windy it might be!

Date:

Astronomy

Jul. 29, 2014 Rise Set
Actual Time 6:44 AM EDT 8:55 PM EDT
Civil Twilight 6:15 AM EDT 9:24 PM EDT
Nautical Twilight 5:39 AM EDT 10:00 PM EDT
Astronomical Twilight 4:59 AM EDT 10:39 PM EDT
Moon 9:16 AM EDT (7/29) 10:11 PM EDT (7/29)
Length of Visible Light 15h 09m
Length of Day
14h 11m
Waxing Crescent, 7% of the Moon is Illuminated
Jul 29
Waxing Crescent
Aug 3
First Quarter
Aug 10
Full
Aug 17
Last Quarter
Aug 25
New

Hourly Weather History & Observations

Time (EDT) Temp. Dew Point Humidity Pressure Visibility Wind Dir Wind Speed Gust Speed Precip Events Conditions
12:58 AM 62.2 °F 55.8 °F 79% 30.06 in 10.0 mi NW 5.8 mph - N/A   Mostly Cloudy
1:58 AM 58.6 °F 49.6 °F 72% 30.04 in 10.0 mi North 3.5 mph - N/A   Clear
2:58 AM 55.4 °F 48.0 °F 76% 30.04 in 10.0 mi NW 6.9 mph - N/A   Clear
3:58 AM 54.7 °F 48.9 °F 81% 30.02 in 10.0 mi NW 3.5 mph - N/A   Clear
4:58 AM 52.0 °F 48.4 °F 88% 30.04 in 10.0 mi West 2.3 mph - N/A   Clear
5:58 AM 49.8 °F 48.7 °F 96% 30.05 in 10.0 mi WNW 2.3 mph - N/A   Clear
6:58 AM 49.5 °F 48.2 °F 95% 30.06 in 10.0 mi WNW 4.6 mph - N/A   Clear
7:58 AM 54.5 °F 51.1 °F 88% 30.07 in 10.0 mi WNW 5.8 mph - N/A   Clear
8:58 AM 58.6 °F 52.0 °F 79% 30.08 in 10.0 mi WNW 5.8 mph - N/A   Clear
9:58 AM 62.1 °F 52.3 °F 70% 30.09 in 10.0 mi Variable 3.5 mph - N/A   Clear
10:58 AM 66.2 °F 53.4 °F 63% 30.09 in 10.0 mi NW 9.2 mph - N/A   Partly Cloudy
11:58 AM 68.4 °F 53.6 °F 59% 30.10 in 10.0 mi WNW 10.4 mph - N/A   Clear
12:58 PM 69.8 °F 54.3 °F 58% 30.09 in 10.0 mi WNW 10.4 mph - N/A   Clear
1:55 PM 71.4 °F 55.6 °F 57% 30.09 in 10.0 mi NW 5.8 mph - N/A   Scattered Clouds
2:58 PM 72.9 °F 57.0 °F 57% 30.08 in 10.0 mi Variable 3.5 mph - N/A   Mostly Cloudy
3:58 PM 73.9 °F 57.0 °F 55% 30.08 in 10.0 mi NNW 5.8 mph - N/A   Scattered Clouds
4:58 PM 75.2 °F 56.8 °F 53% 30.07 in 10.0 mi WNW 8.1 mph - N/A   Clear
5:58 PM 74.8 °F 57.4 °F 54% 30.06 in 10.0 mi WNW 5.8 mph - N/A   Scattered Clouds
6:58 PM 73.4 °F 58.6 °F 60% 30.06 in 10.0 mi WNW 6.9 mph - N/A   Scattered Clouds
7:58 PM 69.4 °F 59.5 °F 71% 30.06 in 10.0 mi WNW 4.6 mph - N/A   Scattered Clouds
8:58 PM 66.0 °F 59.9 °F 81% 30.06 in 10.0 mi West 4.6 mph - N/A   Scattered Clouds
9:58 PM 64.4 °F 59.0 °F 83% 30.07 in 10.0 mi West 4.6 mph - N/A   Clear
10:58 PM 61.7 °F 59.9 °F 94% 30.08 in 10.0 mi Calm Calm - N/A   Clear
11:58 PM 60.3 °F 59.7 °F 98% 30.08 in 10.0 mi Calm Calm - N/A   Clear